| time (UTC) | temp F | wind direction | speed MPH | gust MPH | rain 1hr in | rain 24hr in | rain mn in | humidity % | barometer mb |
| 20260508181805 | 63 | 136 | 5.0 | 9.0 | 0.00 | 0.00 | 0.00 | 55 | 1010.7 |
| 20260508181305 | 64 | 113 | 5.0 | 10.0 | 0.00 | 0.00 | 0.00 | 54 | 1010.7 |
| 20260508180805 | 64 | 151 | 6.0 | 10.0 | 0.00 | 0.00 | 0.00 | 53 | 1010.5 |
| 20260508180306 | 64 | 135 | 6.0 | 10.0 | 0.00 | 0.00 | 0.00 | 53 | 1010.6 |
| 20260508175804 | 64 | 130 | 5.0 | 10.0 | 0.00 | 0.00 | 0.00 | 52 | 1010.5 |
| 20260508175306 | 64 | 136 | 5.0 | 12.0 | 0.00 | 0.00 | 0.00 | 52 | 1010.6 |
| 20260508174805 | 64 | 148 | 5.0 | 10.0 | 0.00 | 0.00 | 0.00 | 52 | 1010.9 |
| 20260508173805 | 64 | 152 | 5.0 | 9.0 | 0.00 | 0.00 | 0.00 | 53 | 1010.9 |
| 20260508173305 | 64 | 155 | 6.0 | 12.0 | 0.00 | 0.00 | 0.00 | 53 | 1010.9 |
| 20260508172807 | 65 | 134 | 5.0 | 10.0 | 0.00 | 0.00 | 0.00 | 53 | 1010.6 |
| 20260508172307 | 64 | 129 | 6.0 | 12.0 | 0.00 | 0.00 | 0.00 | 52 | 1010.9 |
| 20260508171804 | 64 | 171 | 5.0 | 10.0 | 0.00 | 0.00 | 0.00 | 54 | 1010.8 |
| 20260508171305 | 64 | 124 | 3.0 | 7.0 | 0.00 | 0.00 | 0.00 | 54 | 1010.9 |
| 20260508170804 | 64 | 115 | 5.0 | 10.0 | 0.00 | 0.00 | 0.00 | 54 | 1010.8 |
| 20260508170305 | 64 | 140 | 4.0 | 9.0 | 0.00 | 0.00 | 0.00 | 53 | 1010.9 |
| 20260508164804 | 64 | 137 | 4.0 | 10.0 | 0.00 | 0.00 | 0.00 | 54 | 1010.7 |
| 20260508163804 | 65 | 128 | 5.0 | 12.0 | 0.00 | 0.00 | 0.00 | 53 | 1010.6 |
| 20260508163304 | 64 | 147 | 7.0 | 12.0 | 0.00 | 0.00 | 0.00 | 53 | 1010.8 |
| 20260508162804 | 64 | 138 | 6.0 | 10.0 | 0.00 | 0.00 | 0.00 | 53 | 1010.7 |
| 20260508162306 | 65 | 151 | 6.0 | 12.0 | 0.00 | 0.00 | 0.00 | 52 | 1010.7 |
| 20260508161804 | 65 | 122 | 5.0 | 9.0 | 0.00 | 0.00 | 0.00 | 51 | 1010.7 |
| 20260508161304 | 66 | 133 | 5.0 | 12.0 | 0.00 | 0.00 | 0.00 | 50 | 1010.6 |
| 20260508160805 | 64 | 154 | 6.0 | 10.0 | 0.00 | 0.00 | 0.00 | 52 | 1010.6 |
| 20260508160305 | 65 | 177 | 6.0 | 12.0 | 0.00 | 0.00 | 0.00 | 52 | 1010.6 |
| 20260508155805 | 65 | 107 | 6.0 | 12.0 | 0.00 | 0.00 | 0.00 | 53 | 1010.7 |
| 20260508155306 | 64 | 111 | 8.0 | 20.0 | 0.00 | 0.00 | 0.00 | 53 | 1010.6 |
| 20260508154804 | 64 | 145 | 7.0 | 14.0 | 0.00 | 0.00 | 0.00 | 53 | 1010.7 |
| 20260508154304 | 64 | 131 | 6.0 | 12.0 | 0.00 | 0.00 | 0.00 | 54 | 1010.8 |
| 20260508153805 | 64 | 110 | 7.0 | 13.0 | 0.00 | 0.00 | 0.00 | 54 | 1010.9 |
| 20260508153304 | 64 | 129 | 7.0 | 13.0 | 0.00 | 0.00 | 0.00 | 54 | 1010.7 |
| 20260508152804 | 65 | 121 | 6.0 | 13.0 | 0.00 | 0.00 | 0.00 | 51 | 1010.8 |
| 20260508152306 | 65 | 152 | 8.0 | 13.0 | 0.00 | 0.00 | 0.00 | 51 | 1010.5 |
| 20260508151805 | 65 | 126 | 6.0 | 12.0 | 0.00 | 0.00 | 0.00 | 53 | 1010.7 |
| 20260508151305 | 64 | 160 | 5.0 | 10.0 | 0.00 | 0.00 | 0.00 | 53 | 1010.7 |
| 20260508150804 | 64 | 142 | 6.0 | 10.0 | 0.00 | 0.00 | 0.00 | 53 | 1010.8 |
| 20260508150304 | 64 | 141 | 4.0 | 9.0 | 0.00 | 0.00 | 0.00 | 53 | 1010.9 |
| 20260508145804 | 65 | 115 | 8.0 | 13.0 | 0.00 | 0.00 | 0.00 | 52 | 1010.9 |
| 20260508144804 | 67 | 144 | 9.0 | 16.0 | 0.00 | 0.00 | 0.00 | 51 | 1011.0 |
| 20260508144305 | 66 | 152 | 5.0 | 10.0 | 0.00 | 0.00 | 0.00 | 52 | 1010.9 |
| 20260508143805 | 66 | 167 | 6.0 | 16.0 | 0.00 | 0.00 | 0.00 | 51 | 1011.1 |
| 20260508143304 | 65 | 133 | 6.0 | 12.0 | 0.00 | 0.00 | 0.00 | 52 | 1011.0 |
| 20260508142806 | 66 | 122 | 5.0 | 10.0 | 0.00 | 0.00 | 0.00 | 51 | 1011.1 |
| 20260508142306 | 65 | 140 | 5.0 | 13.0 | 0.00 | 0.00 | 0.00 | 52 | 1011.1 |
| 20260508141804 | 64 | 106 | 5.0 | 12.0 | 0.00 | 0.00 | 0.00 | 52 | 1011.3 |
| 20260508141304 | 65 | 161 | 7.0 | 13.0 | 0.00 | 0.00 | 0.00 | 51 | 1011.1 |
| 20260508140804 | 65 | 148 | 5.0 | 15.0 | 0.00 | 0.00 | 0.00 | 51 | 1011.2 |
| 20260508140304 | 65 | 155 | 7.0 | 17.0 | 0.00 | 0.00 | 0.00 | 52 | 1011.3 |
| 20260508135306 | 65 | 148 | 5.0 | 13.0 | 0.00 | 0.00 | 0.00 | 52 | 1011.4 |
| 20260508134804 | 64 | 138 | 7.0 | 13.0 | 0.00 | 0.00 | 0.00 | 52 | 1011.5 |
| 20260508133806 | 63 | 141 | 6.0 | 12.0 | 0.00 | 0.00 | 0.00 | 54 | 1011.7 |
| 20260508133305 | 63 | 130 | 7.0 | 13.0 | 0.00 | 0.00 | 0.00 | 54 | 1011.8 |
| 20260508131804 | 63 | 139 | 9.0 | 15.0 | 0.00 | 0.01 | 0.00 | 54 | 1012.0 |
| 20260508131304 | 64 | 146 | 8.0 | 16.0 | 0.00 | 0.01 | 0.00 | 55 | 1011.8 |
| 20260508130305 | 64 | 138 | 8.0 | 15.0 | 0.00 | 0.02 | 0.00 | 55 | 1012.0 |
| 20260508125805 | 64 | 141 | 6.0 | 14.0 | 0.00 | 0.02 | 0.00 | 55 | 1012.0 |
| 20260508125306 | 63 | 151 | 7.0 | 14.0 | 0.00 | 0.02 | 0.00 | 57 | 1012.1 |
| 20260508124804 | 63 | 124 | 7.0 | 13.0 | 0.00 | 0.02 | 0.00 | 56 | 1012.1 |
| 20260508124305 | 63 | 148 | 6.0 | 16.0 | 0.00 | 0.02 | 0.00 | 57 | 1012.2 |
| 20260508123804 | 63 | 144 | 7.0 | 14.0 | 0.00 | 0.02 | 0.00 | 56 | 1012.1 |
| 20260508123304 | 63 | 108 | 6.0 | 13.0 | 0.00 | 0.02 | 0.00 | 55 | 1012.3 |
| 20260508122804 | 64 | 137 | 6.0 | 12.0 | 0.00 | 0.03 | 0.00 | 55 | 1012.4 |
| 20260508122307 | 63 | 128 | 6.0 | 14.0 | 0.00 | 0.04 | 0.00 | 58 | 1012.5 |
| 20260508121804 | 64 | 152 | 7.0 | 14.0 | 0.00 | 0.05 | 0.00 | 56 | 1012.1 |
| 20260508121303 | 63 | 156 | 8.0 | 15.0 | 0.00 | 0.06 | 0.00 | 58 | 1012.3 |
| 20260508120804 | 63 | 126 | 9.0 | 15.0 | 0.00 | 0.08 | 0.00 | 57 | 1012.4 |
| 20260508120304 | 63 | 100 | 7.0 | 12.0 | 0.00 | 0.10 | 0.00 | 56 | 1012.4 |
| 20260508115805 | 63 | 138 | 5.0 | 10.0 | 0.00 | 0.12 | 0.00 | 59 | 1012.5 |
| 20260508115306 | 63 | 82 | 6.0 | 14.0 | 0.00 | 0.13 | 0.00 | 58 | 1012.8 |
| 20260508114805 | 62 | 141 | 5.0 | 10.0 | 0.00 | 0.13 | 0.00 | 60 | 1012.8 |
| 20260508114304 | 62 | 133 | 7.0 | 15.0 | 0.00 | 0.13 | 0.00 | 62 | 1013.2 |
| 20260508113805 | 62 | 174 | 7.0 | 15.0 | 0.00 | 0.13 | 0.00 | 60 | 1013.0 |
| 20260508113304 | 62 | 113 | 5.0 | 14.0 | 0.00 | 0.13 | 0.00 | 62 | 1013.2 |
| 20260508112804 | 61 | 100 | 6.0 | 14.0 | 0.00 | 0.13 | 0.00 | 61 | 1013.2 |
| 20260508112307 | 61 | 138 | 6.0 | 17.0 | 0.00 | 0.13 | 0.00 | 64 | 1013.4 |
| 20260508111804 | 61 | 119 | 7.0 | 13.0 | 0.00 | 0.13 | 0.00 | 63 | 1013.5 |
| 20260508110804 | 60 | 152 | 9.0 | 16.0 | 0.00 | 0.13 | 0.00 | 64 | 1013.8 |
| 20260508110304 | 60 | 149 | 7.0 | 13.0 | 0.00 | 0.13 | 0.00 | 65 | 1013.6 |
| 20260508105804 | 60 | 151 | 6.0 | 13.0 | 0.00 | 0.13 | 0.00 | 63 | 1013.8 |
| 20260508105306 | 61 | 136 | 7.0 | 13.0 | 0.00 | 0.14 | 0.00 | 62 | 1013.7 |
| 20260508104803 | 61 | 150 | 6.0 | 15.0 | 0.00 | 0.14 | 0.00 | 64 | 1013.7 |
| 20260508104303 | 61 | 138 | 6.0 | 13.0 | 0.00 | 0.15 | 0.00 | 63 | 1013.6 |
| 20260508103804 | 61 | 119 | 7.0 | 13.0 | 0.00 | 0.15 | 0.00 | 64 | 1013.6 |
| 20260508103304 | 60 | 140 | 5.0 | 12.0 | 0.00 | 0.15 | 0.00 | 64 | 1013.8 |
| 20260508102804 | 60 | 142 | 9.0 | 16.0 | 0.00 | 0.15 | 0.00 | 65 | 1013.7 |
| 20260508102306 | 60 | 142 | 7.0 | 13.0 | 0.00 | 0.15 | 0.00 | 65 | 1013.8 |
| 20260508101803 | 60 | 158 | 6.0 | 12.0 | 0.00 | 0.15 | 0.00 | 64 | 1013.7 |
| 20260508101304 | 59 | 182 | 7.0 | 12.0 | 0.00 | 0.15 | 0.00 | 66 | 1013.8 |
| 20260508100304 | 59 | 144 | 7.0 | 13.0 | 0.00 | 0.15 | 0.00 | 64 | 1014.0 |
| 20260508095803 | 58 | 102 | 5.0 | 9.0 | 0.00 | 0.15 | 0.00 | 69 | 1013.9 |
| 20260508095306 | 58 | 135 | 6.0 | 12.0 | 0.00 | 0.15 | 0.00 | 68 | 1014.0 |
| 20260508094804 | 58 | 138 | 7.0 | 13.0 | 0.00 | 0.15 | 0.00 | 70 | 1013.9 |
| 20260508094304 | 57 | 124 | 6.0 | 15.0 | 0.00 | 0.15 | 0.00 | 73 | 1014.0 |
| 20260508093804 | 57 | 128 | 6.0 | 9.0 | 0.00 | 0.15 | 0.00 | 72 | 1014.0 |
| 20260508093304 | 57 | 148 | 7.0 | 15.0 | 0.00 | 0.15 | 0.00 | 73 | 1014.0 |
| 20260508092312 | 57 | 122 | 7.0 | 13.0 | 0.00 | 0.15 | 0.00 | 74 | 1013.9 |
| 20260508091803 | 57 | 138 | 7.0 | 14.0 | 0.00 | 0.15 | 0.00 | 74 | 1013.8 |
| 20260508091303 | 56 | 169 | 7.0 | 15.0 | 0.00 | 0.15 | 0.00 | 75 | 1013.6 |
| 20260508090803 | 57 | 128 | 6.0 | 10.0 | 0.00 | 0.15 | 0.00 | 75 | 1013.5 |
| 20260508090304 | 56 | 138 | 6.0 | 13.0 | 0.00 | 0.15 | 0.00 | 77 | 1013.6 |
| 20260508084803 | 55 | 145 | 5.0 | 9.0 | 0.00 | 0.15 | 0.00 | 79 | 1013.4 |
| 20260508084304 | 55 | 115 | 6.0 | 12.0 | 0.00 | 0.15 | 0.00 | 78 | 1013.2 |
| 20260508083804 | 54 | 119 | 6.0 | 10.0 | 0.00 | 0.15 | 0.00 | 79 | 1013.4 |
| 20260508083304 | 53 | 132 | 5.0 | 12.0 | 0.00 | 0.15 | 0.00 | 82 | 1013.2 |
| 20260508082306 | 52 | 140 | 7.0 | 10.0 | 0.00 | 0.15 | 0.00 | 85 | 1013.5 |
| 20260508081303 | 51 | 115 | 4.0 | 9.0 | 0.00 | 0.15 | 0.00 | 88 | 1013.6 |
| 20260508080804 | 51 | 117 | 3.0 | 9.0 | 0.00 | 0.15 | 0.00 | 89 | 1013.4 |
| 20260508080304 | 51 | 124 | 4.0 | 9.0 | 0.00 | 0.15 | 0.00 | 89 | 1013.3 |
| 20260508075803 | 50 | 134 | 4.0 | 8.0 | 0.00 | 0.15 | 0.00 | 89 | 1013.8 |
| 20260508075308 | 50 | 119 | 3.0 | 7.0 | 0.00 | 0.15 | 0.00 | 90 | 1013.7 |
| 20260508074804 | 50 | 128 | 5.0 | 8.0 | 0.00 | 0.15 | 0.00 | 90 | 1013.8 |
| 20260508073304 | 50 | 116 | 3.0 | 8.0 | 0.00 | 0.15 | 0.00 | 90 | 1013.6 |
| 20260508072803 | 50 | 117 | 3.0 | 7.0 | 0.00 | 0.15 | 0.00 | 91 | 1013.6 |
| 20260508072307 | 49 | 44 | 2.0 | 9.0 | 0.00 | 0.15 | 0.00 | 92 | 1013.7 |
| 20260508071803 | 49 | 108 | 2.0 | 9.0 | 0.00 | 0.15 | 0.00 | 92 | 1013.6 |
| 20260508071303 | 48 | 130 | 3.0 | 8.0 | 0.00 | 0.15 | 0.00 | 93 | 1013.5 |
| 20260508070804 | 48 | 113 | 3.0 | 7.0 | 0.00 | 0.15 | 0.00 | 93 | 1013.4 |
| 20260508065803 | 48 | 79 | 2.0 | 7.0 | 0.00 | 0.15 | 0.00 | 93 | 1013.1 |
| 20260508065306 | 48 | 78 | 3.0 | 9.0 | 0.00 | 0.15 | 0.00 | 93 | 1013.4 |
| 20260508063803 | 48 | 64 | 3.0 | 6.0 | 0.00 | 0.15 | 0.00 | 94 | 1013.7 |
| 20260508063303 | 48 | 67 | 3.0 | 6.0 | 0.00 | 0.15 | 0.00 | 94 | 1013.6 |
| 20260508062805 | 47 | 59 | 2.0 | 3.0 | 0.00 | 0.15 | 0.00 | 94 | 1013.6 |
| 20260508062306 | 47 | 68 | 2.0 | 5.0 | 0.00 | 0.15 | 0.00 | 94 | 1013.6 |
| 20260508061804 | 47 | 70 | 2.0 | 5.0 | 0.00 | 0.15 | 0.00 | 94 | 1013.8 |
| 20260508061304 | 47 | 63 | 2.0 | 5.0 | 0.00 | 0.15 | 0.00 | 94 | 1013.5 |
| 20260508060303 | 47 | 32 | 1.0 | 3.0 | 0.00 | 0.15 | 0.00 | 95 | 1013.3 |
| 20260508055804 | 47 | 41 | 2.0 | 5.0 | 0.00 | 0.15 | 0.00 | 95 | 1013.3 |
| 20260508055306 | 47 | 25 | 1.0 | 6.0 | 0.00 | 0.15 | 0.00 | 95 | 1013.2 |
| 20260508054804 | 47 | 18 | 3.0 | 5.0 | 0.00 | 0.15 | 0.00 | 95 | 1013.1 |
| 20260508054303 | 47 | 27 | 1.0 | 2.0 | 0.00 | 0.15 | 0.00 | 95 | 1013.2 |
| 20260508053804 | 47 | 32 | 1.0 | 1.0 | 0.00 | 0.15 | 0.00 | 95 | 1013.3 |
| 20260508052306 | 46 | 41 | 0.0 | 1.0 | 0.00 | 0.15 | 0.00 | 95 | 1013.3 |
| 20260508051804 | 46 | 72 | 0.0 | 2.0 | 0.00 | 0.15 | 0.00 | 95 | 1013.3 |
| 20260508050804 | 46 | 264 | 1.0 | 3.0 | 0.00 | 0.15 | 0.00 | 95 | 1013.1 |
| 20260508050304 | 46 | 294 | 1.0 | 3.0 | 0.00 | 0.15 | 0.00 | 95 | 1013.2 |
| 20260508045803 | 47 | 337 | 2.0 | 5.0 | 0.00 | 0.15 | 0.00 | 94 | 1012.9 |
| 20260508044803 | 47 | 68 | 2.0 | 6.0 | 0.00 | 0.15 | 0.00 | 94 | 1012.6 |
| 20260508044304 | 47 | 71 | 3.0 | 8.0 | 0.00 | 0.15 | 0.00 | 94 | 1012.7 |
| 20260508043803 | 47 | 113 | 2.0 | 8.0 | 0.00 | 0.15 | 0.00 | 94 | 1012.3 |
| 20260508043303 | 46 | 36 | 3.0 | 8.0 | 0.00 | 0.15 | 0.00 | 94 | 1012.2 |
| 20260508042803 | 46 | 104 | 4.0 | 12.0 | 0.00 | 0.15 | 0.00 | 94 | 1012.2 |
| 20260508042306 | 46 | 98 | 3.0 | 9.0 | 0.00 | 0.15 | 0.00 | 94 | 1012.3 |
| 20260508041804 | 46 | 110 | 4.0 | 9.0 | 0.00 | 0.15 | 0.00 | 94 | 1012.2 |
| 20260508041304 | 46 | 92 | 3.0 | 8.0 | 0.00 | 0.15 | 0.00 | 94 | 1012.4 |
| 20260508040803 | 46 | 124 | 5.0 | 9.0 | 0.00 | 0.15 | 0.00 | 94 | 1012.6 |
| 20260508035803 | 46 | 78 | 5.0 | 9.0 | 0.00 | 0.15 | 0.00 | 93 | 1012.3 |
| 20260508035306 | 46 | 100 | 4.0 | 9.0 | 0.00 | 0.15 | 0.00 | 93 | 1012.4 |
| 20260508034304 | 46 | 134 | 5.0 | 9.0 | 0.00 | 0.15 | 0.00 | 92 | 1012.5 |
| 20260508033804 | 46 | 125 | 3.0 | 8.0 | 0.00 | 0.15 | 0.00 | 92 | 1012.5 |
| 20260508033304 | 46 | 133 | 3.0 | 8.0 | 0.00 | 0.15 | 0.00 | 92 | 1012.3 |
| 20260508032804 | 46 | 82 | 3.0 | 9.0 | 0.00 | 0.15 | 0.00 | 92 | 1012.3 |
| 20260508031804 | 46 | 119 | 3.0 | 8.0 | 0.00 | 0.15 | 0.00 | 92 | 1012.1 |
| 20260508031304 | 46 | 108 | 5.0 | 9.0 | 0.00 | 0.15 | 0.00 | 91 | 1012.1 |
| 20260508030304 | 46 | 114 | 5.0 | 9.0 | 0.00 | 0.15 | 0.00 | 90 | 1012.1 |
| 20260508025804 | 46 | 117 | 4.0 | 8.0 | 0.00 | 0.15 | 0.00 | 91 | 1012.1 |
| 20260508025306 | 46 | 82 | 3.0 | 8.0 | 0.00 | 0.15 | 0.00 | 90 | 1012.1 |
| 20260508024804 | 46 | 132 | 4.0 | 9.0 | 0.00 | 0.15 | 0.00 | 90 | 1012.2 |
| 20260508024304 | 46 | 103 | 5.0 | 8.0 | 0.00 | 0.15 | 0.00 | 90 | 1012.1 |
| 20260508023804 | 46 | 152 | 5.0 | 9.0 | 0.00 | 0.15 | 0.00 | 90 | 1012.3 |
| 20260508023304 | 46 | 96 | 3.0 | 8.0 | 0.00 | 0.15 | 0.00 | 90 | 1012.1 |
| 20260508022804 | 46 | 63 | 3.0 | 10.0 | 0.00 | 0.15 | 0.00 | 90 | 1012.4 |
| 20260508022307 | 46 | 81 | 3.0 | 7.0 | 0.00 | 0.15 | 0.00 | 90 | 1012.3 |
| 20260508021803 | 46 | 89 | 2.0 | 6.0 | 0.00 | 0.15 | 0.00 | 90 | 1012.6 |
| 20260508021304 | 46 | 73 | 3.0 | 6.0 | 0.00 | 0.15 | 0.00 | 90 | 1012.6 |
| 20260508020804 | 46 | 115 | 2.0 | 5.0 | 0.00 | 0.15 | 0.00 | 90 | 1012.7 |
| 20260508015803 | 46 | 99 | 2.0 | 5.0 | 0.00 | 0.15 | 0.00 | 90 | 1013.5 |
| 20260508015306 | 46 | 166 | 1.0 | 2.0 | 0.00 | 0.15 | 0.00 | 90 | 1013.8 |
| 20260508014804 | 46 | 257 | 1.0 | 3.0 | 0.00 | 0.15 | 0.00 | 89 | 1013.6 |
| 20260508014303 | 47 | 108 | 1.0 | 6.0 | 0.00 | 0.15 | 0.00 | 89 | 1013.7 |
| 20260508013804 | 47 | 120 | 2.0 | 7.0 | 0.00 | 0.15 | 0.00 | 89 | 1013.8 |
| 20260508013304 | 46 | 112 | 2.0 | 7.0 | 0.00 | 0.15 | 0.00 | 90 | 1013.7 |
| 20260508012307 | 46 | 51 | 1.0 | 3.0 | 0.00 | 0.15 | 0.00 | 90 | 1013.8 |
| 20260508011803 | 46 | 66 | 1.0 | 3.0 | 0.00 | 0.15 | 0.00 | 90 | 1013.8 |
| 20260508011304 | 46 | 18 | 1.0 | 3.0 | 0.00 | 0.15 | 0.00 | 90 | 1013.9 |
| 20260508010804 | 46 | 359 | 1.0 | 3.0 | 0.00 | 0.15 | 0.00 | 90 | 1013.9 |
| 20260508010304 | 46 | 25 | 1.0 | 3.0 | 0.00 | 0.15 | 0.00 | 89 | 1014.0 |
| 20260508005803 | 46 | 7 | 1.0 | 3.0 | 0.00 | 0.15 | 0.00 | 89 | 1014.0 |
| 20260508005306 | 46 | 9 | 3.0 | 5.0 | 0.00 | 0.15 | 0.00 | 90 | 1014.3 |
| 20260508004804 | 46 | 349 | 3.0 | 5.0 | 0.00 | 0.15 | 0.00 | 90 | 1014.3 |
| 20260508004304 | 46 | 337 | 3.0 | 7.0 | 0.00 | 0.15 | 0.00 | 91 | 1014.2 |
| 20260508003804 | 45 | 1 | 2.0 | 5.0 | 0.00 | 0.15 | 0.00 | 91 | 1014.5 |
| 20260508003303 | 45 | 323 | 2.0 | 3.0 | 0.00 | 0.15 | 0.00 | 91 | 1014.6 |
| 20260508002803 | 45 | 4 | 3.0 | 5.0 | 0.00 | 0.15 | 0.00 | 91 | 1014.4 |
| 20260508001304 | 45 | 354 | 1.0 | 2.0 | 0.00 | 0.15 | 0.00 | 91 | 1015.0 |
| 20260508000804 | 45 | 10 | 1.0 | 3.0 | 0.00 | 0.15 | 0.00 | 91 | 1015.1 |
| 20260508000305 | 45 | 28 | 1.0 | 2.0 | 0.00 | 0.15 | 0.00 | 91 | 1014.8 |
| 20260507235804 | 45 | 40 | 1.0 | 2.0 | 0.00 | 0.15 | 0.00 | 91 | 1015.0 |
| 20260507235307 | 45 | 27 | 1.0 | 2.0 | 0.00 | 0.15 | 0.00 | 91 | 1014.9 |
| 20260507234803 | 45 | 38 | 1.0 | 2.0 | 0.00 | 0.15 | 0.00 | 92 | 1014.8 |
| 20260507234304 | 45 | 120 | 1.0 | 3.0 | 0.00 | 0.15 | 0.00 | 92 | 1015.1 |
| 20260507233304 | 45 | 329 | 0.0 | 1.0 | 0.00 | 0.15 | 0.00 | 92 | 1014.5 |
| 20260507232803 | 45 | 359 | 1.0 | 2.0 | 0.00 | 0.15 | 0.00 | 92 | 1014.5 |
| 20260507232306 | 45 | 12 | 1.0 | 2.0 | 0.00 | 0.15 | 0.00 | 92 | 1014.5 |
| 20260507231804 | 45 | 357 | 2.0 | 3.0 | 0.00 | 0.15 | 0.00 | 91 | 1014.5 |
| 20260507231303 | 45 | 11 | 2.0 | 5.0 | 0.00 | 0.15 | 0.00 | 92 | 1014.4 |
| 20260507230804 | 45 | 9 | 2.0 | 6.0 | 0.00 | 0.15 | 0.00 | 92 | 1014.6 |
| 20260507225804 | 45 | 20 | 2.0 | 6.0 | 0.00 | 0.15 | 0.00 | 92 | 1014.8 |
| 20260507224804 | 45 | 9 | 1.0 | 2.0 | 0.00 | 0.15 | 0.00 | 92 | 1014.8 |
| 20260507224304 | 45 | 8 | 1.0 | 2.0 | 0.00 | 0.15 | 0.00 | 91 | 1014.9 |
| 20260507223804 | 46 | 19 | 1.0 | 3.0 | 0.00 | 0.15 | 0.00 | 91 | 1015.0 |
| 20260507223304 | 46 | 45 | 1.0 | 2.0 | 0.00 | 0.15 | 0.00 | 91 | 1014.8 |
| 20260507222306 | 46 | 44 | 2.0 | 5.0 | 0.00 | 0.15 | 0.00 | 91 | 1014.7 |
| 20260507221804 | 46 | 59 | 2.0 | 5.0 | 0.00 | 0.15 | 0.00 | 91 | 1014.6 |
| 20260507221304 | 46 | 50 | 3.0 | 5.0 | 0.00 | 0.15 | 0.00 | 91 | 1014.7 |
| 20260507220804 | 46 | 43 | 2.0 | 5.0 | 0.00 | 0.15 | 0.00 | 92 | 1014.7 |
| 20260507220304 | 46 | 50 | 2.0 | 3.0 | 0.00 | 0.15 | 0.00 | 92 | 1014.8 |
| 20260507215803 | 46 | 15 | 2.0 | 3.0 | 0.00 | 0.15 | 0.15 | 92 | 1014.8 |
| 20260507215306 | 46 | 35 | 2.0 | 5.0 | 0.00 | 0.15 | 0.15 | 92 | 1014.6 |
| 20260507214804 | 46 | 35 | 2.0 | 5.0 | 0.00 | 0.15 | 0.15 | 91 | 1014.6 |
| 20260507214304 | 46 | 47 | 2.0 | 3.0 | 0.00 | 0.15 | 0.15 | 92 | 1014.8 |
| 20260507213804 | 46 | 8 | 1.0 | 3.0 | 0.00 | 0.15 | 0.15 | 92 | 1014.8 |
| 20260507213304 | 46 | 4 | 1.0 | 3.0 | 0.00 | 0.15 | 0.15 | 91 | 1014.7 |
| 20260507212804 | 47 | 343 | 2.0 | 3.0 | 0.00 | 0.15 | 0.15 | 91 | 1014.4 |
| 20260507212306 | 47 | 0 | 1.0 | 2.0 | 0.00 | 0.15 | 0.15 | 91 | 1014.2 |
| 20260507211803 | 47 | 27 | 1.0 | 2.0 | 0.00 | 0.15 | 0.15 | 91 | 1014.3 |
| 20260507211303 | 47 | 351 | 0.0 | 1.0 | 0.00 | 0.15 | 0.15 | 91 | 1014.5 |
| 20260507210804 | 47 | 352 | 0.0 | 2.0 | 0.00 | 0.15 | 0.15 | 90 | 1014.5 |
| 20260507210304 | 47 | 40 | 1.0 | 2.0 | 0.00 | 0.15 | 0.15 | 90 | 1014.4 |
| 20260507205803 | 47 | 30 | 1.0 | 3.0 | 0.00 | 0.15 | 0.15 | 90 | 1014.5 |
| 20260507203804 | 48 | 51 | 0.0 | 0.0 | 0.00 | 0.15 | 0.15 | 88 | 1013.9 |
| 20260507203304 | 48 | 334 | 0.0 | 1.0 | 0.00 | 0.15 | 0.15 | 88 | 1014.0 |
| 20260507202804 | 48 | 59 | 1.0 | 2.0 | 0.00 | 0.15 | 0.15 | 87 | 1014.0 |
| 20260507201803 | 49 | 56 | 1.0 | 2.0 | 0.00 | 0.15 | 0.15 | 86 | 1013.8 |
| 20260507200803 | 49 | 72 | 1.0 | 2.0 | 0.00 | 0.15 | 0.15 | 86 | 1013.7 |
| 20260507195804 | 49 | 171 | 0.0 | 2.0 | 0.00 | 0.15 | 0.15 | 86 | 1013.4 |
| 20260507194804 | 50 | 126 | 1.0 | 1.0 | 0.00 | 0.15 | 0.15 | 85 | 1013.1 |
| 20260507193804 | 50 | 161 | 0.0 | 1.0 | 0.00 | 0.15 | 0.15 | 84 | 1013.0 |
| 20260507192804 | 51 | 44 | 1.0 | 2.0 | 0.00 | 0.15 | 0.15 | 83 | 1012.9 |
| 20260507192306 | 51 | 31 | 1.0 | 3.0 | 0.00 | 0.15 | 0.15 | 82 | 1012.9 |
| 20260507191803 | 51 | 90 | 1.0 | 3.0 | 0.00 | 0.15 | 0.15 | 81 | 1012.6 |
| 20260507191303 | 51 | 77 | 0.0 | 1.0 | 0.00 | 0.15 | 0.15 | 80 | 1012.8 |
| 20260507190803 | 52 | 128 | 1.0 | 3.0 | 0.00 | 0.15 | 0.15 | 80 | 1012.5 |
| 20260507190303 | 52 | 32 | 2.0 | 5.0 | 0.00 | 0.15 | 0.15 | 79 | 1012.4 |
| 20260507185804 | 52 | 73 | 3.0 | 5.0 | 0.00 | 0.15 | 0.15 | 78 | 1012.1 |
| 20260507185306 | 53 | 32 | 2.0 | 7.0 | 0.00 | 0.15 | 0.15 | 76 | 1012.1 |
| 20260507184803 | 53 | 98 | 2.0 | 5.0 | 0.00 | 0.15 | 0.15 | 75 | 1012.0 |
| 20260507183804 | 54 | 96 | 1.0 | 7.0 | 0.00 | 0.15 | 0.15 | 74 | 1012.0 |
| 20260507183304 | 54 | 54 | 2.0 | 8.0 | 0.00 | 0.15 | 0.15 | 74 | 1011.9 |
| 20260507182804 | 54 | 32 | 3.0 | 7.0 | 0.00 | 0.15 | 0.15 | 74 | 1011.9 |